Location: Berduj
(43.0019°N, 22.3781°E)
Time: 20:58:09
(UTC+00:00)

Cosmos 482 Debris - Pass Details

Date: 19 October 2019
Orbit: 202 x 2324 km, 52.1° (Epoch: 11 November)

Event Time Altitude Azimuth Distance (km) Brightness Sun altitude
Rises 16:19:36 0° 303° (WNW) 3,833 9.5 -7.6°
Reaches altitude 10° 16:22:58 10° 303° (WNW) 2,485 8.5 -8.2°
Maximum altitude 16:28:27 86° 218° (SW) 559 4.4 -9.2°
Drops below altitude 10° 16:31:39 10° 127° (SE) 1,468 6.1 -9.8°
Enters shadow 16:31:55 - 127° (SE) 1,579 6.2 -9.8°
